Location: Epalinges
(46.5518°N, 6.6683°E)
Time: 20:37:26
(UTC+00:00)

Cosmos 1515 Rocket - Pass Details

Date: 20 June 2021
Orbit: 607 x 629 km, 82.5° (Epoch: 23 July)

Event Time Altitude Azimuth Distance (km) Brightness Sun altitude
Rises 02:55:41 0° 348° (NNW) 2,908 7.5 -6.6°
Reaches altitude 10° 02:57:55 10° 347° (NNW) 2,001 6.6 -6.3°
Maximum altitude 03:02:20 70° 264° (W) 667 3.6 -5.8°
Drops below altitude 10° 03:06:44 10° 181° (S) 1,996 5.8 -5.2°
Sets 03:08:57 0° 179° (S) 2,900 6.6 -5.0°
